Time,TemperatureF,DewpointF,PressureIn,WindDirection,WindDirectionDegrees,WindSpeedMPH,WindSpeedGustMPH,Humidity,HourlyPrecipIn,Conditions,Clouds,dailyrainin,SoftwareType,DateUTC
2013-05-18 00:03:00,71.0,61.9,29.64,WSW,247,12.0,15.0,73,0.00,,,0.00,Weather View 32 v70,2013-05-18 04:03:00,
2013-05-18 00:08:00,71.0,61.9,29.64,WSW,247,9.0,15.0,73,0.00,,,0.00,Weather View 32 v70,2013-05-18 04:08:00,
2013-05-18 00:13:00,71.0,61.9,29.64,WSW,247,10.0,15.0,73,0.00,,,0.00,Weather View 32 v70,2013-05-18 04:13:00,
2013-05-18 00:18:00,71.0,61.9,29.66,WSW,247,7.0,14.0,73,0.00,,,0.00,Weather View 32 v70,2013-05-18 04:18:00,
2013-05-18 00:23:00,71.0,61.9,29.66,WSW,247,8.0,14.0,73,0.00,,,0.00,Weather View 32 v70,2013-05-18 04:23:00,
2013-05-18 00:28:00,71.0,61.9,29.64,WSW,247,9.0,14.0,73,0.00,,,0.00,Weather View 32 v70,2013-05-18 04:28:00,
2013-05-18 00:33:00,71.0,61.9,29.64,WSW,247,7.0,14.0,73,0.00,,,0.00,Weather View 32 v70,2013-05-18 04:33:00,
2013-05-18 00:38:00,71.0,61.9,29.66,WSW,247,9.0,14.0,73,0.00,,,0.00,Weather View 32 v70,2013-05-18 04:38:00,
2013-05-18 00:43:00,71.0,61.9,29.66,WSW,247,7.0,14.0,73,0.00,,,0.00,Weather View 32 v70,2013-05-18 04:43:00,
2013-05-18 00:51:00,71.0,61.9,29.67,WSW,247,7.0,13.0,73,0.00,,,0.00,Weather View 32 v70,2013-05-18 04:51:00,
2013-05-18 00:58:00,71.0,61.9,29.66,WSW,247,9.0,13.0,73,0.00,,,0.00,Weather View 32 v70,2013-05-18 04:58:00,
2013-05-18 01:03:00,71.0,61.9,29.66,WSW,247,10.0,13.0,73,0.00,,,0.00,Weather View 32 v70,2013-05-18 05:03:00,
2013-05-18 01:08:00,71.0,61.9,29.66,WSW,247,12.0,13.0,73,0.00,,,0.00,Weather View 32 v70,2013-05-18 05:08:00,
2013-05-18 01:13:00,71.0,61.9,29.66,WSW,247,8.0,15.0,73,0.00,,,0.00,Weather View 32 v70,2013-05-18 05:13:00,
2013-05-18 01:18:00,71.0,61.9,29.66,WSW,247,13.0,15.0,73,0.00,,,0.00,Weather View 32 v70,2013-05-18 05:18:00,
2013-05-18 01:23:00,71.0,61.9,29.66,WSW,247,10.0,15.0,73,0.00,,,0.00,Weather View 32 v70,2013-05-18 05:23:00,
2013-05-18 01:28:00,71.0,61.9,29.65,WSW,247,10.0,15.0,73,0.00,,,0.00,Weather View 32 v70,2013-05-18 05:28:00,
2013-05-18 01:33:00,71.0,61.5,29.65,WSW,247,10.0,15.0,72,0.00,,,0.00,Weather View 32 v70,2013-05-18 05:33:00,
2013-05-18 01:38:00,71.0,61.5,29.64,WSW,247,10.0,15.0,72,0.00,,,0.00,Weather View 32 v70,2013-05-18 05:38:00,
2013-05-18 01:48:00,71.0,61.1,29.64,WSW,247,7.0,15.0,71,0.00,,,0.00,Weather View 32 v70,2013-05-18 05:48:00,
2013-05-18 01:53:00,71.0,61.1,29.64,WSW,247,9.0,15.0,71,0.00,,,0.00,Weather View 32 v70,2013-05-18 05:53:00,
2013-05-18 01:58:00,71.0,61.1,29.64,WSW,247,9.0,15.0,71,0.00,,,0.00,Weather View 32 v70,2013-05-18 05:58:00,
2013-05-18 02:03:00,70.0,60.1,29.64,WSW,247,9.0,15.0,71,0.00,,,0.00,Weather View 32 v70,2013-05-18 06:03:00,
2013-05-18 02:08:00,70.0,60.1,29.64,WSW,247,10.0,15.0,71,0.00,,,0.00,Weather View 32 v70,2013-05-18 06:08:00,
2013-05-18 02:13:00,70.0,59.7,29.64,WSW,247,7.0,15.0,70,0.00,,,0.00,Weather View 32 v70,2013-05-18 06:13:00,
2013-05-18 02:18:00,70.0,59.7,29.65,WSW,247,10.0,15.0,70,0.00,,,0.00,Weather View 32 v70,2013-05-18 06:18:00,
2013-05-18 02:23:00,70.0,59.7,29.65,WSW,247,10.0,15.0,70,0.00,,,0.00,Weather View 32 v70,2013-05-18 06:23:00,
2013-05-18 02:28:00,70.0,59.7,29.65,WSW,247,7.0,14.0,70,0.00,,,0.00,Weather View 32 v70,2013-05-18 06:28:00,
2013-05-18 02:33:00,70.0,59.3,29.65,WSW,247,9.0,14.0,69,0.00,,,0.00,Weather View 32 v70,2013-05-18 06:33:00,
2013-05-18 02:38:00,70.0,59.3,29.67,WSW,247,10.0,14.0,69,0.00,,,0.00,Weather View 32 v70,2013-05-18 06:38:00,
2013-05-18 02:48:00,70.0,58.9,29.66,WSW,247,9.0,14.0,68,0.00,,,0.00,Weather View 32 v70,2013-05-18 06:48:00,
2013-05-18 02:53:00,70.0,58.9,29.66,WSW,247,9.0,13.0,68,0.00,,,0.00,Weather View 32 v70,2013-05-18 06:53:00,
2013-05-18 02:58:00,70.0,58.9,29.67,WSW,247,9.0,13.0,68,0.00,,,0.00,Weather View 32 v70,2013-05-18 06:58:00,
2013-05-18 03:03:00,70.0,58.9,29.67,WSW,247,9.0,13.0,68,0.00,,,0.00,Weather View 32 v70,2013-05-18 07:03:00,
2013-05-18 03:08:00,70.0,58.9,29.65,WSW,247,12.0,13.0,68,0.00,,,0.00,Weather View 32 v70,2013-05-18 07:08:00,
2013-05-18 03:13:00,70.0,58.9,29.65,WSW,247,12.0,13.0,68,0.00,,,0.00,Weather View 32 v70,2013-05-18 07:13:00,
2013-05-18 03:18:00,70.0,58.9,29.64,WSW,247,10.0,13.0,68,0.00,,,0.00,Weather View 32 v70,2013-05-18 07:18:00,
2013-05-18 03:23:00,70.0,58.9,29.64,WSW,247,8.0,13.0,68,0.00,,,0.00,Weather View 32 v70,2013-05-18 07:23:00,
2013-05-18 03:28:00,70.0,58.5,29.65,WSW,247,11.0,13.0,67,0.00,,,0.00,Weather View 32 v70,2013-05-18 07:28:00,
2013-05-18 03:38:00,70.0,58.5,29.64,WSW,247,12.0,13.0,67,0.00,,,0.00,Weather View 32 v70,2013-05-18 07:38:00,
2013-05-18 03:43:00,70.0,58.5,29.64,WSW,247,9.0,13.0,67,0.00,,,0.00,Weather View 32 v70,2013-05-18 07:43:00,
2013-05-18 03:48:00,70.0,58.5,29.64,WSW,247,9.0,13.0,67,0.00,,,0.00,Weather View 32 v70,2013-05-18 07:48:00,
2013-05-18 03:53:00,70.0,58.5,29.64,WSW,247,9.0,13.0,67,0.00,,,0.00,Weather View 32 v70,2013-05-18 07:53:00,
2013-05-18 03:58:00,70.0,58.1,29.66,WSW,247,9.0,13.0,66,0.00,,,0.00,Weather View 32 v70,2013-05-18 07:58:00,
2013-05-18 04:03:00,70.0,58.1,29.66,WSW,247,8.0,13.0,66,0.00,,,0.00,Weather View 32 v70,2013-05-18 08:03:00,
2013-05-18 04:08:00,70.0,58.1,29.65,WSW,247,8.0,13.0,66,0.00,,,0.00,Weather View 32 v70,2013-05-18 08:08:00,
2013-05-18 04:18:00,70.0,58.1,29.65,WSW,247,4.0,13.0,66,0.00,,,0.00,Weather View 32 v70,2013-05-18 08:18:00,
2013-05-18 04:23:00,69.0,57.1,29.65,WSW,247,3.0,13.0,66,0.00,,,0.00,Weather View 32 v70,2013-05-18 08:23:00,
2013-05-18 04:28:00,69.0,56.7,29.67,SSE,157,5.0,13.0,65,0.00,,,0.00,Weather View 32 v70,2013-05-18 08:28:00,
2013-05-18 04:33:00,69.0,56.7,29.67,SSE,157,4.0,13.0,65,0.00,,,0.00,Weather View 32 v70,2013-05-18 08:33:00,
2013-05-18 04:38:00,69.0,56.7,29.67,SSE,157,5.0,12.0,65,0.00,,,0.00,Weather View 32 v70,2013-05-18 08:38:00,
2013-05-18 04:43:00,69.0,56.3,29.67,SSE,157,6.0,12.0,64,0.00,,,0.00,Weather View 32 v70,2013-05-18 08:43:00,
2013-05-18 04:48:00,69.0,55.8,29.65,SSE,157,4.0,12.0,63,0.00,,,0.00,Weather View 32 v70,2013-05-18 08:48:00,
2013-05-18 04:53:00,69.0,55.4,29.65,SSE,157,3.0,11.0,62,0.00,,,0.00,Weather View 32 v70,2013-05-18 08:53:00,
2013-05-18 05:03:00,68.0,54.0,29.66,SSE,157,4.0,10.0,61,0.00,,,0.00,Weather View 32 v70,2013-05-18 09:03:00,
2013-05-18 05:08:00,68.0,54.0,29.67,SSE,157,6.0,9.0,61,0.00,,,0.00,Weather View 32 v70,2013-05-18 09:08:00,
2013-05-18 05:13:00,68.0,53.6,29.67,SSE,157,5.0,9.0,60,0.00,,,0.00,Weather View 32 v70,2013-05-18 09:13:00,
2013-05-18 05:18:00,68.0,53.1,29.67,SSE,157,5.0,8.0,59,0.00,,,0.00,Weather View 32 v70,2013-05-18 09:18:00,
2013-05-18 05:23:00,68.0,52.6,29.67,SSE,157,6.0,7.0,58,0.00,,,0.00,Weather View 32 v70,2013-05-18 09:23:00,
2013-05-18 05:28:00,68.0,52.6,29.67,SSE,157,6.0,7.0,58,0.00,,,0.00,Weather View 32 v70,2013-05-18 09:28:00,
2013-05-18 05:38:00,68.0,51.7,29.67,SSE,157,5.0,8.0,56,0.00,,,0.00,Weather View 32 v70,2013-05-18 09:38:00,
2013-05-18 05:43:00,68.0,51.2,29.67,SSE,157,6.0,8.0,55,0.00,,,0.00,Weather View 32 v70,2013-05-18 09:43:00,
2013-05-18 05:48:00,68.0,50.2,29.67,SSE,157,6.0,8.0,53,0.00,,,0.00,Weather View 32 v70,2013-05-18 09:48:00,
2013-05-18 05:54:00,68.0,49.7,29.67,SSE,157,6.0,9.0,52,0.00,,,0.00,Weather View 32 v70,2013-05-18 09:54:00,
2013-05-18 06:03:00,68.0,49.1,29.68,SSE,157,8.0,10.0,51,0.00,,,0.00,Weather View 32 v70,2013-05-18 10:03:00,
2013-05-18 06:13:00,68.0,48.6,29.69,SSE,157,6.0,10.0,50,0.00,,,0.00,Weather View 32 v70,2013-05-18 10:13:00,
2013-05-18 06:18:00,68.0,48.1,29.69,SSE,157,6.0,10.0,49,0.00,,,0.00,Weather View 32 v70,2013-05-18 10:18:00,
2013-05-18 06:23:00,68.0,48.1,29.69,SSE,157,6.0,10.0,49,0.00,,,0.00,Weather View 32 v70,2013-05-18 10:23:00,
2013-05-18 06:28:00,68.0,47.5,29.69,SSE,157,7.0,10.0,48,0.00,,,0.00,Weather View 32 v70,2013-05-18 10:28:00,
2013-05-18 06:33:00,68.0,47.5,29.69,SSE,157,9.0,10.0,48,0.00,,,0.00,Weather View 32 v70,2013-05-18 10:33:00,
2013-05-18 06:38:00,68.0,46.4,29.69,SSE,157,7.0,10.0,46,0.00,,,0.00,Weather View 32 v70,2013-05-18 10:38:00,
2013-05-18 06:43:00,68.0,45.8,29.69,SSE,157,6.0,10.0,45,0.00,,,0.00,Weather View 32 v70,2013-05-18 10:43:00,
2013-05-18 06:53:00,68.0,45.2,29.71,SSE,157,7.0,10.0,44,0.00,,,0.00,Weather View 32 v70,2013-05-18 10:53:00,
2013-05-18 06:58:00,68.0,44.6,29.71,SSE,157,7.0,10.0,43,0.00,,,0.00,Weather View 32 v70,2013-05-18 10:58:00,
2013-05-18 07:03:00,68.0,44.6,29.71,SSE,157,7.0,10.0,43,0.00,,,0.00,Weather View 32 v70,2013-05-18 11:03:00,
2013-05-18 07:08:00,69.0,44.3,29.69,SSE,157,6.0,10.0,41,0.00,,,0.00,Weather View 32 v70,2013-05-18 11:08:00,
2013-05-18 07:13:00,69.0,44.9,29.69,SSE,157,7.0,10.0,42,0.00,,,0.00,Weather View 32 v70,2013-05-18 11:13:00,
2013-05-18 07:18:00,69.0,44.3,29.69,SSE,157,4.0,10.0,41,0.00,,,0.00,Weather View 32 v70,2013-05-18 11:18:00,
2013-05-18 07:28:00,69.0,43.6,29.69,SSE,157,7.0,10.0,40,0.00,,,0.00,Weather View 32 v70,2013-05-18 11:28:00,
2013-05-18 07:33:00,69.0,44.3,29.69,SSE,157,9.0,11.0,41,0.00,,,0.00,Weather View 32 v70,2013-05-18 11:33:00,
2013-05-18 07:38:00,69.0,44.3,29.72,SSE,157,5.0,11.0,41,0.00,,,0.00,Weather View 32 v70,2013-05-18 11:38:00,
2013-05-18 07:43:00,70.0,45.2,29.72,SSE,157,8.0,11.0,41,0.00,,,0.00,Weather View 32 v70,2013-05-18 11:43:00,
2013-05-18 07:48:00,70.0,45.8,29.69,SSE,157,6.0,12.0,42,0.00,,,0.00,Weather View 32 v70,2013-05-18 11:48:00,
2013-05-18 07:55:00,70.0,45.8,29.69,SSE,157,7.0,12.0,42,0.00,,,0.00,Weather View 32 v70,2013-05-18 11:55:00,
2013-05-18 08:03:00,70.0,46.4,29.70,SSE,157,9.0,12.0,43,0.00,,,0.00,Weather View 32 v70,2013-05-18 12:03:00,
2013-05-18 08:08:00,70.0,47.0,29.70,SSE,157,7.0,12.0,44,0.00,,,0.00,Weather View 32 v70,2013-05-18 12:08:00,
2013-05-18 08:13:00,70.0,47.0,29.70,SSE,157,11.0,12.0,44,0.00,,,0.00,Weather View 32 v70,2013-05-18 12:13:00,
2013-05-18 08:18:00,70.0,47.0,29.71,WSW,247,7.0,12.0,44,0.00,,,0.00,Weather View 32 v70,2013-05-18 12:18:00,
2013-05-18 08:23:00,70.0,47.0,29.71,SSE,157,7.0,12.0,44,0.00,,,0.00,Weather View 32 v70,2013-05-18 12:23:00,
2013-05-18 08:33:00,71.0,48.5,29.70,SSE,157,4.0,13.0,45,0.00,,,0.00,Weather View 32 v70,2013-05-18 12:33:00,
2013-05-18 08:38:00,71.0,49.1,29.70,SSE,157,9.0,13.0,46,0.00,,,0.00,Weather View 32 v70,2013-05-18 12:38:00,
2013-05-18 08:43:00,71.0,49.7,29.70,SSE,157,8.0,13.0,47,0.00,,,0.00,Weather View 32 v70,2013-05-18 12:43:00,
2013-05-18 08:48:00,71.0,50.3,29.72,SSE,157,6.0,13.0,48,0.00,,,0.00,Weather View 32 v70,2013-05-18 12:48:00,
2013-05-18 08:53:00,71.0,50.3,29.72,SSE,157,7.0,13.0,48,0.00,,,0.00,Weather View 32 v70,2013-05-18 12:53:00,
2013-05-18 08:58:00,71.0,51.4,29.72,SSE,157,10.0,13.0,50,0.00,,,0.00,Weather View 32 v70,2013-05-18 12:58:00,
2013-05-18 09:08:00,72.0,52.8,29.73,SSE,157,6.0,13.0,51,0.00,,,0.00,Weather View 32 v70,2013-05-18 13:08:00,
2013-05-18 09:13:00,72.0,52.8,29.73,WSW,247,8.0,13.0,51,0.00,,,0.00,Weather View 32 v70,2013-05-18 13:13:00,
2013-05-18 09:18:00,72.0,53.9,29.70,SSE,157,6.0,13.0,53,0.00,,,0.00,Weather View 32 v70,2013-05-18 13:18:00,
2013-05-18 09:23:00,72.0,53.9,29.70,SSE,157,7.0,13.0,53,0.00,,,0.00,Weather View 32 v70,2013-05-18 13:23:00,
2013-05-18 09:28:00,73.0,55.3,29.71,SSE,157,4.0,13.0,54,0.00,,,0.00,Weather View 32 v70,2013-05-18 13:28:00,
2013-05-18 09:33:00,73.0,55.3,29.71,WSW,247,5.0,15.0,54,0.00,,,0.00,Weather View 32 v70,2013-05-18 13:33:00,
2013-05-18 09:43:00,73.0,55.8,29.70,SSE,157,10.0,15.0,55,0.00,,,0.00,Weather View 32 v70,2013-05-18 13:43:00,
2013-05-18 09:48:00,73.0,56.3,29.70,SSE,157,11.0,15.0,56,0.00,,,0.00,Weather View 32 v70,2013-05-18 13:48:00,
2013-05-18 09:53:00,73.0,56.3,29.70,SSE,157,8.0,15.0,56,0.00,,,0.00,Weather View 32 v70,2013-05-18 13:53:00,
2013-05-18 09:58:00,73.0,56.3,29.70,WSW,247,11.0,15.0,56,0.00,,,0.00,Weather View 32 v70,2013-05-18 13:58:00,
2013-05-18 10:03:00,73.0,56.8,29.70,SSE,157,10.0,15.0,57,0.00,,,0.00,Weather View 32 v70,2013-05-18 14:03:00,
2013-05-18 10:08:00,73.0,56.8,29.70,SSE,157,9.0,15.0,57,0.00,,,0.00,Weather View 32 v70,2013-05-18 14:08:00,
2013-05-18 10:13:00,74.0,58.2,29.70,SSE,157,10.0,15.0,58,0.00,,,0.00,Weather View 32 v70,2013-05-18 14:13:00,
2013-05-18 10:23:00,73.0,57.3,29.71,SSE,157,9.0,16.0,58,0.00,,,0.00,Weather View 32 v70,2013-05-18 14:23:00,
2013-05-18 10:28:00,73.0,56.8,29.71,SSE,157,10.0,16.0,57,0.00,,,0.00,Weather View 32 v70,2013-05-18 14:28:00,
2013-05-18 10:33:00,73.0,57.3,29.71,SSE,157,8.0,16.0,58,0.00,,,0.00,Weather View 32 v70,2013-05-18 14:33:00,
2013-05-18 10:38:00,73.0,56.8,29.70,SSE,157,9.0,16.0,57,0.00,,,0.00,Weather View 32 v70,2013-05-18 14:38:00,
2013-05-18 10:43:00,73.0,57.3,29.70,SSE,157,9.0,16.0,58,0.00,,,0.00,Weather View 32 v70,2013-05-18 14:43:00,
2013-05-18 10:48:00,74.0,58.2,29.69,SSE,157,15.0,16.0,58,0.00,,,0.00,Weather View 32 v70,2013-05-18 14:48:00,
2013-05-18 10:53:00,74.0,58.2,29.69,SSE,157,8.0,16.0,58,0.00,,,0.00,Weather View 32 v70,2013-05-18 14:53:00,
2013-05-18 11:03:00,74.0,58.7,29.71,SSE,157,7.0,16.0,59,0.00,,,0.00,Weather View 32 v70,2013-05-18 15:03:00,
2013-05-18 11:08:00,74.0,58.2,29.72,SSE,157,4.0,16.0,58,0.00,,,0.00,Weather View 32 v70,2013-05-18 15:08:00,
2013-05-18 11:13:00,73.0,57.3,29.72,SSE,157,13.0,16.0,58,0.00,,,0.00,Weather View 32 v70,2013-05-18 15:13:00,
2013-05-18 11:18:00,73.0,57.3,29.71,SSE,157,11.0,15.0,58,0.00,,,0.00,Weather View 32 v70,2013-05-18 15:18:00,
2013-05-18 11:23:00,73.0,56.8,29.71,SSE,157,11.0,15.0,57,0.00,,,0.00,Weather View 32 v70,2013-05-18 15:23:00,
2013-05-18 11:28:00,73.0,56.3,29.71,SSE,157,9.0,15.0,56,0.00,,,0.00,Weather View 32 v70,2013-05-18 15:28:00,
2013-05-18 11:33:00,73.0,56.3,29.71,SSE,157,10.0,15.0,56,0.00,,,0.00,Weather View 32 v70,2013-05-18 15:33:00,
2013-05-18 11:43:00,74.0,57.8,29.70,SSE,157,9.0,16.0,57,0.00,,,0.00,Weather View 32 v70,2013-05-18 15:43:00,
2013-05-18 11:48:00,74.0,57.8,29.72,SSE,157,7.0,16.0,57,0.00,,,0.00,Weather View 32 v70,2013-05-18 15:48:00,
2013-05-18 11:53:00,73.0,56.3,29.72,SSE,157,12.0,16.0,56,0.00,,,0.00,Weather View 32 v70,2013-05-18 15:53:00,
2013-05-18 11:58:00,73.0,56.3,29.71,SSE,157,13.0,16.0,56,0.00,,,0.00,Weather View 32 v70,2013-05-18 15:58:00,
2013-05-18 12:03:00,73.0,56.3,29.71,SSE,157,14.0,16.0,56,0.00,,,0.00,Weather View 32 v70,2013-05-18 16:03:00,
2013-05-18 12:08:00,73.0,55.8,29.70,SSE,157,13.0,16.0,55,0.00,,,0.00,Weather View 32 v70,2013-05-18 16:08:00,
2013-05-18 12:18:00,74.0,57.3,29.71,SSE,157,6.0,17.0,56,0.00,,,0.00,Weather View 32 v70,2013-05-18 16:18:00,
2013-05-18 12:23:00,74.0,57.8,29.71,SSE,157,11.0,17.0,57,0.00,,,0.00,Weather View 32 v70,2013-05-18 16:23:00,
2013-05-18 12:28:00,74.0,57.8,29.68,SSE,157,9.0,17.0,57,0.00,,,0.00,Weather View 32 v70,2013-05-18 16:28:00,
2013-05-18 12:33:00,74.0,58.2,29.68,SSE,157,11.0,18.0,58,0.00,,,0.00,Weather View 32 v70,2013-05-18 16:33:00,
2013-05-18 12:38:00,75.0,59.2,29.67,SSE,157,8.0,18.0,58,0.00,,,0.00,Weather View 32 v70,2013-05-18 16:38:00,
2013-05-18 12:43:00,75.0,60.1,29.67,SSE,157,10.0,18.0,60,0.00,,,0.00,Weather View 32 v70,2013-05-18 16:43:00,
2013-05-18 12:53:00,75.0,60.6,29.68,SSE,157,10.0,19.0,61,0.00,,,0.00,Weather View 32 v70,2013-05-18 16:53:00,
2013-05-18 12:58:00,75.0,60.1,29.68,ENE,67,7.0,19.0,60,0.00,,,0.00,Weather View 32 v70,2013-05-18 16:58:00,
2013-05-18 13:03:00,75.0,60.6,29.68,SSE,157,10.0,19.0,61,0.00,,,0.00,Weather View 32 v70,2013-05-18 17:03:00,
2013-05-18 13:08:00,76.0,62.0,29.69,SSE,157,14.0,19.0,62,0.00,,,0.00,Weather View 32 v70,2013-05-18 17:08:00,
2013-05-18 13:13:00,75.0,61.1,29.69,SSE,157,11.0,19.0,62,0.00,,,0.00,Weather View 32 v70,2013-05-18 17:13:00,
2013-05-18 13:18:00,75.0,60.6,29.67,SSE,157,7.0,22.0,61,0.00,,,0.00,Weather View 32 v70,2013-05-18 17:18:00,
2013-05-18 13:23:00,75.0,61.1,29.67,SSE,157,10.0,22.0,62,0.00,,,0.00,Weather View 32 v70,2013-05-18 17:23:00,
2013-05-18 13:33:00,75.0,61.5,29.66,SSE,157,15.0,22.0,63,0.00,,,0.00,Weather View 32 v70,2013-05-18 17:33:00,
2013-05-18 13:38:00,75.0,61.5,29.67,SSE,157,9.0,22.0,63,0.00,,,0.00,Weather View 32 v70,2013-05-18 17:38:00,
2013-05-18 13:43:00,75.0,61.5,29.67,SSE,157,7.0,22.0,63,0.00,,,0.00,Weather View 32 v70,2013-05-18 17:43:00,
2013-05-18 13:48:00,75.0,61.5,29.68,SSE,157,16.0,22.0,63,0.00,,,0.00,Weather View 32 v70,2013-05-18 17:48:00,
2013-05-18 13:53:00,75.0,62.0,29.68,SSE,157,10.0,22.0,64,0.00,,,0.00,Weather View 32 v70,2013-05-18 17:53:00,
2013-05-18 13:58:00,76.0,63.3,29.66,SSE,157,14.0,22.0,65,0.00,,,0.00,Weather View 32 v70,2013-05-18 17:58:00,
2013-05-18 14:08:00,75.0,62.0,29.66,SSE,157,6.0,22.0,64,0.00,,,0.00,Weather View 32 v70,2013-05-18 18:08:00,
2013-05-18 14:13:00,75.0,62.4,29.66,SSE,157,8.0,22.0,65,0.00,,,0.00,Weather View 32 v70,2013-05-18 18:13:00,
2013-05-18 14:18:00,75.0,62.4,29.65,SSE,157,14.0,22.0,65,0.00,,,0.00,Weather View 32 v70,2013-05-18 18:18:00,
2013-05-18 14:23:00,75.0,62.4,29.65,SSE,157,12.0,22.0,65,0.00,,,0.00,Weather View 32 v70,2013-05-18 18:23:00,
2013-05-18 14:28:00,76.0,63.8,29.65,SSE,157,13.0,22.0,66,0.00,,,0.00,Weather View 32 v70,2013-05-18 18:28:00,
2013-05-18 14:33:00,75.0,62.8,29.65,SSE,157,17.0,23.0,66,0.00,,,0.00,Weather View 32 v70,2013-05-18 18:33:00,
2013-05-18 14:43:00,76.0,64.2,29.65,SSE,157,10.0,23.0,67,0.00,,,0.00,Weather View 32 v70,2013-05-18 18:43:00,
2013-05-18 14:48:00,76.0,64.2,29.66,SSE,157,8.0,23.0,67,0.00,,,0.00,Weather View 32 v70,2013-05-18 18:48:00,
2013-05-18 14:53:00,77.0,65.2,29.66,SSE,157,12.0,23.0,67,0.00,,,0.00,Weather View 32 v70,2013-05-18 18:53:00,
2013-05-18 14:59:00,76.0,64.2,29.65,SSE,157,17.0,23.0,67,0.00,,,0.00,Weather View 32 v70,2013-05-18 18:59:00,
2013-05-18 15:08:00,76.0,64.2,29.64,SSE,157,6.0,23.0,67,0.00,,,0.00,Weather View 32 v70,2013-05-18 19:08:00,
2013-05-18 15:18:00,76.0,64.2,29.64,WSW,247,12.0,23.0,67,0.00,,,0.00,Weather View 32 v70,2013-05-18 19:18:00,
2013-05-18 15:23:00,76.0,64.6,29.64,SSE,157,15.0,23.0,68,0.00,,,0.00,Weather View 32 v70,2013-05-18 19:23:00,
2013-05-18 15:28:00,76.0,64.2,29.63,SSE,157,13.0,23.0,67,0.00,,,0.00,Weather View 32 v70,2013-05-18 19:28:00,
2013-05-18 15:33:00,75.0,62.8,29.63,SSE,157,17.0,23.0,66,0.00,,,0.00,Weather View 32 v70,2013-05-18 19:33:00,
2013-05-18 15:38:00,76.0,64.2,29.64,SSE,157,9.0,23.0,67,0.00,,,0.00,Weather View 32 v70,2013-05-18 19:38:00,
2013-05-18 15:43:00,76.0,64.2,29.64,SSE,157,19.0,23.0,67,0.00,,,0.00,Weather View 32 v70,2013-05-18 19:43:00,
2013-05-18 15:48:00,75.0,62.8,29.66,SSE,157,12.0,23.0,66,0.00,,,0.00,Weather View 32 v70,2013-05-18 19:48:00,
2013-05-18 15:58:00,75.0,62.4,29.64,SSE,157,13.0,23.0,65,0.00,,,0.00,Weather View 32 v70,2013-05-18 19:58:00,
2013-05-18 16:03:00,75.0,62.8,29.64,SSE,157,11.0,23.0,66,0.00,,,0.00,Weather View 32 v70,2013-05-18 20:03:00,
2013-05-18 16:08:00,75.0,62.4,29.65,SSE,157,10.0,23.0,65,0.00,,,0.00,Weather View 32 v70,2013-05-18 20:08:00,
2013-05-18 16:13:00,76.0,64.2,29.65,SSE,157,4.0,22.0,67,0.00,,,0.00,Weather View 32 v70,2013-05-18 20:13:00,
2013-05-18 16:18:00,75.0,62.4,29.64,SSE,157,12.0,22.0,65,0.00,,,0.00,Weather View 32 v70,2013-05-18 20:18:00,
2013-05-18 16:23:00,75.0,62.4,29.64,SSE,157,15.0,22.0,65,0.00,,,0.00,Weather View 32 v70,2013-05-18 20:23:00,
2013-05-18 16:28:00,75.0,62.4,29.63,SSE,157,9.0,22.0,65,0.00,,,0.00,Weather View 32 v70,2013-05-18 20:28:00,
2013-05-18 16:38:00,74.0,61.4,29.64,SSE,157,12.0,22.0,65,0.00,,,0.00,Weather View 32 v70,2013-05-18 20:38:00,
2013-05-18 16:43:00,74.0,61.4,29.64,SSE,157,12.0,22.0,65,0.00,,,0.00,Weather View 32 v70,2013-05-18 20:43:00,
2013-05-18 16:48:00,74.0,61.0,29.64,SSE,157,14.0,22.0,64,0.00,,,0.00,Weather View 32 v70,2013-05-18 20:48:00,
2013-05-18 16:53:00,74.0,60.6,29.64,SSE,157,9.0,20.0,63,0.00,,,0.00,Weather View 32 v70,2013-05-18 20:53:00,
2013-05-18 16:58:00,73.0,59.6,29.64,SSE,157,17.0,20.0,63,0.00,,,0.00,Weather View 32 v70,2013-05-18 20:58:00,
2013-05-18 17:03:00,74.0,61.0,29.64,SSE,157,12.0,20.0,64,0.00,,,0.00,Weather View 32 v70,2013-05-18 21:03:00,
2013-05-18 17:08:00,74.0,60.6,29.67,SSE,157,9.0,20.0,63,0.00,,,0.00,Weather View 32 v70,2013-05-18 21:08:00,
2013-05-18 17:18:00,73.0,59.6,29.66,SSE,157,15.0,20.0,63,0.00,,,0.00,Weather View 32 v70,2013-05-18 21:18:00,
2013-05-18 17:23:00,74.0,60.6,29.66,SSE,157,10.0,20.0,63,0.00,,,0.00,Weather View 32 v70,2013-05-18 21:23:00,
2013-05-18 17:28:00,74.0,60.6,29.64,SSE,157,12.0,20.0,63,0.00,,,0.00,Weather View 32 v70,2013-05-18 21:28:00,
2013-05-18 17:33:00,74.0,60.6,29.64,SSE,157,8.0,20.0,63,0.00,,,0.00,Weather View 32 v70,2013-05-18 21:33:00,
2013-05-18 17:38:00,74.0,60.6,29.64,SSE,157,13.0,20.0,63,0.00,,,0.00,Weather View 32 v70,2013-05-18 21:38:00,
2013-05-18 17:43:00,74.0,60.6,29.64,SSE,157,7.0,19.0,63,0.00,,,0.00,Weather View 32 v70,2013-05-18 21:43:00,
2013-05-18 17:48:00,74.0,60.6,29.64,SSE,157,10.0,19.0,63,0.00,,,0.00,Weather View 32 v70,2013-05-18 21:48:00,
2013-05-18 17:58:00,73.0,59.2,29.66,SSE,157,11.0,19.0,62,0.00,,,0.00,Weather View 32 v70,2013-05-18 21:58:00,
2013-05-18 18:03:00,73.0,59.2,29.66,SSE,157,11.0,19.0,62,0.00,,,0.00,Weather View 32 v70,2013-05-18 22:03:00,
2013-05-18 18:08:00,73.0,59.2,29.65,SSE,157,13.0,19.0,62,0.00,,,0.00,Weather View 32 v70,2013-05-18 22:08:00,
2013-05-18 18:13:00,73.0,59.2,29.65,SSE,157,11.0,19.0,62,0.00,,,0.00,Weather View 32 v70,2013-05-18 22:13:00,
2013-05-18 18:18:00,73.0,58.7,29.65,WSW,247,7.0,19.0,61,0.00,,,0.00,Weather View 32 v70,2013-05-18 22:18:00,
2013-05-18 18:23:00,73.0,58.7,29.65,SSE,157,9.0,17.0,61,0.00,,,0.00,Weather View 32 v70,2013-05-18 22:23:00,
2013-05-18 18:33:00,73.0,58.7,29.65,SSE,157,9.0,17.0,61,0.00,,,0.00,Weather View 32 v70,2013-05-18 22:33:00,
2013-05-18 18:38:00,73.0,58.7,29.67,SSE,157,9.0,17.0,61,0.00,,,0.00,Weather View 32 v70,2013-05-18 22:38:00,
2013-05-18 18:43:00,73.0,58.7,29.67,SSE,157,10.0,17.0,61,0.00,,,0.00,Weather View 32 v70,2013-05-18 22:43:00,
2013-05-18 18:48:00,72.0,57.3,29.65,SSE,157,12.0,17.0,60,0.00,,,0.00,Weather View 32 v70,2013-05-18 22:48:00,
2013-05-18 18:53:00,72.0,57.3,29.65,SSE,157,10.0,17.0,60,0.00,,,0.00,Weather View 32 v70,2013-05-18 22:53:00,
2013-05-18 18:58:00,72.0,56.8,29.66,SSE,157,7.0,17.0,59,0.00,,,0.00,Weather View 32 v70,2013-05-18 22:58:00,
2013-05-18 19:03:00,72.0,57.3,29.66,SSE,157,13.0,17.0,60,0.00,,,0.00,Weather View 32 v70,2013-05-18 23:03:00,
2013-05-18 19:08:00,72.0,56.8,29.65,SSE,157,6.0,17.0,59,0.00,,,0.00,Weather View 32 v70,2013-05-18 23:08:00,
2013-05-18 19:18:00,72.0,56.4,29.65,SSE,157,9.0,17.0,58,0.00,,,0.00,Weather View 32 v70,2013-05-18 23:18:00,
2013-05-18 19:23:00,72.0,56.4,29.65,SSE,157,9.0,17.0,58,0.00,,,0.00,Weather View 32 v70,2013-05-18 23:23:00,
2013-05-18 19:28:00,72.0,59.1,29.68,SSE,157,7.0,16.0,64,0.00,,,0.00,Weather View 32 v70,2013-05-18 23:28:00,
2013-05-18 19:33:00,72.0,56.4,29.68,SSE,157,6.0,16.0,58,0.00,,,0.00,Weather View 32 v70,2013-05-18 23:33:00,
2013-05-18 19:38:00,72.0,58.7,29.69,SSE,157,5.0,15.0,63,0.00,,,0.00,Weather View 32 v70,2013-05-18 23:38:00,
2013-05-18 19:43:00,72.0,55.9,29.69,SSE,157,8.0,15.0,57,0.00,,,0.00,Weather View 32 v70,2013-05-18 23:43:00,
2013-05-18 19:48:00,72.0,58.7,29.67,SSE,157,5.0,15.0,63,0.00,,,0.00,Weather View 32 v70,2013-05-18 23:48:00,
2013-05-18 19:53:00,72.0,55.4,29.67,SSE,157,7.0,15.0,56,0.00,,,0.00,Weather View 32 v70,2013-05-18 23:53:00,
2013-05-18 20:01:00,72.0,58.2,29.67,SSE,157,6.0,15.0,62,0.00,,,0.00,Weather View 32 v70,2013-05-19 00:01:00,
2013-05-18 20:08:00,71.0,56.8,29.70,SSE,157,7.0,15.0,61,0.00,,,0.00,Weather View 32 v70,2013-05-19 00:08:00,
2013-05-18 20:13:00,71.0,54.0,29.70,SSE,157,8.0,15.0,55,0.00,,,0.00,Weather View 32 v70,2013-05-19 00:13:00,
2013-05-18 20:18:00,71.0,56.8,29.69,SSE,157,6.0,15.0,61,0.00,,,0.00,Weather View 32 v70,2013-05-19 00:18:00,
2013-05-18 20:23:00,71.0,54.0,29.69,SSE,157,9.0,15.0,55,0.00,,,0.00,Weather View 32 v70,2013-05-19 00:23:00,
2013-05-18 20:28:00,71.0,56.4,29.67,SSE,157,7.0,15.0,60,0.00,,,0.00,Weather View 32 v70,2013-05-19 00:28:00,
2013-05-18 20:33:00,71.0,53.0,29.67,SSE,157,9.0,13.0,53,0.00,,,0.00,Weather View 32 v70,2013-05-19 00:33:00,
2013-05-18 20:43:00,71.0,53.0,29.67,SSE,157,7.0,13.0,53,0.00,,,0.00,Weather View 32 v70,2013-05-19 00:43:00,
2013-05-18 20:48:00,71.0,56.4,29.67,SSE,157,3.0,13.0,60,0.00,,,0.00,Weather View 32 v70,2013-05-19 00:48:00,
2013-05-18 20:53:00,71.0,53.0,29.67,SSE,157,5.0,13.0,53,0.00,,,0.00,Weather View 32 v70,2013-05-19 00:53:00,
2013-05-18 20:58:00,71.0,56.4,29.67,SSE,157,6.0,13.0,60,0.00,,,0.00,Weather View 32 v70,2013-05-19 00:58:00,
2013-05-18 21:03:00,71.0,53.0,29.67,SSE,157,9.0,13.0,53,0.00,,,0.00,Weather View 32 v70,2013-05-19 01:03:00,
2013-05-18 21:08:00,71.0,56.4,29.67,SSE,157,11.0,13.0,60,0.00,,,0.00,Weather View 32 v70,2013-05-19 01:08:00,
2013-05-18 21:13:00,71.0,53.0,29.67,SSE,157,9.0,13.0,53,0.00,,,0.00,Weather View 32 v70,2013-05-19 01:13:00,
2013-05-18 21:18:00,71.0,55.9,29.67,SSE,157,7.0,13.0,59,0.00,,,0.00,Weather View 32 v70,2013-05-19 01:18:00,
2013-05-18 21:23:00,71.0,52.4,29.67,SSE,157,7.0,13.0,52,0.00,,,0.00,Weather View 32 v70,2013-05-19 01:23:00,
2013-05-18 21:33:00,71.0,51.9,29.67,SSE,157,9.0,12.0,51,0.00,,,0.00,Weather View 32 v70,2013-05-19 01:33:00,
2013-05-18 21:38:00,71.0,55.9,29.68,SSE,157,7.0,12.0,59,0.00,,,0.00,Weather View 32 v70,2013-05-19 01:38:00,
2013-05-18 21:43:00,71.0,51.9,29.68,SSE,157,6.0,12.0,51,0.00,,,0.00,Weather View 32 v70,2013-05-19 01:43:00,
2013-05-18 21:48:00,71.0,55.9,29.68,SSE,157,6.0,12.0,59,0.00,,,0.00,Weather View 32 v70,2013-05-19 01:48:00,
2013-05-18 21:53:00,71.0,51.9,29.68,SSE,157,7.0,12.0,51,0.00,,,0.00,Weather View 32 v70,2013-05-19 01:53:00,
2013-05-18 21:58:00,71.0,55.4,29.68,SSE,157,6.0,12.0,58,0.00,,,0.00,Weather View 32 v70,2013-05-19 01:58:00,
2013-05-18 22:03:00,70.0,50.5,29.68,SSE,157,6.0,12.0,50,0.00,,,0.00,Weather View 32 v70,2013-05-19 02:03:00,
2013-05-18 22:13:00,71.0,51.4,29.69,SSE,157,7.0,12.0,50,0.00,,,0.00,Weather View 32 v70,2013-05-19 02:13:00,
2013-05-18 22:18:00,71.0,55.0,29.68,SSE,157,6.0,12.0,57,0.00,,,0.00,Weather View 32 v70,2013-05-19 02:18:00,
2013-05-18 22:23:00,70.0,49.9,29.68,SSE,157,7.0,12.0,49,0.00,,,0.00,Weather View 32 v70,2013-05-19 02:23:00,
2013-05-18 22:28:00,71.0,55.0,29.67,SSE,157,6.0,12.0,57,0.00,,,0.00,Weather View 32 v70,2013-05-19 02:28:00,
2013-05-18 22:33:00,70.0,49.4,29.67,SSE,157,8.0,12.0,48,0.00,,,0.00,Weather View 32 v70,2013-05-19 02:33:00,
2013-05-18 22:38:00,70.0,53.5,29.69,SSE,157,5.0,10.0,56,0.00,,,0.00,Weather View 32 v70,2013-05-19 02:38:00,
2013-05-18 22:43:00,70.0,49.4,29.69,SSE,157,7.0,10.0,48,0.00,,,0.00,Weather View 32 v70,2013-05-19 02:43:00,
2013-05-18 22:48:00,70.0,53.5,29.68,SSE,157,7.0,10.0,56,0.00,,,0.00,Weather View 32 v70,2013-05-19 02:48:00,
2013-05-18 22:58:00,70.0,53.5,29.70,SSE,157,7.0,10.0,56,0.00,,,0.00,Weather View 32 v70,2013-05-19 02:58:00,
2013-05-18 23:03:00,70.0,48.8,29.70,SSE,157,9.0,10.0,47,0.00,,,0.00,Weather View 32 v70,2013-05-19 03:03:00,
2013-05-18 23:08:00,70.0,53.0,29.68,SSE,157,8.0,10.0,55,0.00,,,0.00,Weather View 32 v70,2013-05-19 03:08:00,
2013-05-18 23:13:00,70.0,48.2,29.68,SSE,157,9.0,10.0,46,0.00,,,0.00,Weather View 32 v70,2013-05-19 03:13:00,
2013-05-18 23:18:00,70.0,53.0,29.68,SSE,157,9.0,10.0,55,0.00,,,0.00,Weather View 32 v70,2013-05-19 03:18:00,
2013-05-18 23:23:00,70.0,48.2,29.68,SSE,157,6.0,11.0,46,0.00,,,0.00,Weather View 32 v70,2013-05-19 03:23:00,
2013-05-18 23:28:00,70.0,53.0,29.68,SSE,157,9.0,12.0,55,0.00,,,0.00,Weather View 32 v70,2013-05-19 03:28:00,
2013-05-18 23:38:00,70.0,53.0,29.68,SSE,157,7.0,12.0,55,0.00,,,0.00,Weather View 32 v70,2013-05-19 03:38:00,
2013-05-18 23:43:00,70.0,48.2,29.68,SSE,157,7.0,12.0,46,0.00,,,0.00,Weather View 32 v70,2013-05-19 03:43:00,
2013-05-18 23:48:00,70.0,53.0,29.70,SSE,157,9.0,12.0,55,0.00,,,0.00,Weather View 32 v70,2013-05-19 03:48:00,
2013-05-18 23:53:00,70.0,48.2,29.70,SSE,157,8.0,12.0,46,0.00,,,0.00,Weather View 32 v70,2013-05-19 03:53:00,
2013-05-18 23:58:00,70.0,53.0,29.68,SSE,157,6.0,12.0,55,0.00,,,0.00,Weather View 32 v70,2013-05-19 03:58:00,